Weather History for Sydney, NW

Change the Weather History Date:

Thursday, July 18, 2013

  Actual Average Record
Temperature  
Mean Temperature 64 °F -  
Max Temperature 73 °F 64 °F 73 °F (2013)
Min Temperature 55 °F 45 °F 41 °F (1996)
Degree Days  
Heating Degree Days 1    
Growing Degree Days 14 (Base 50)    
Moisture  
Dew Point 54 °F    
Average Humidity 70    
Maximum Humidity 88    
Minimum Humidity 39    
Precipitation  
Precipitation 0.00 in 0.10 in - ()
Sea Level Pressure  
Sea Level Pressure 30.12 in    
Wind  
Wind Speed 7 mph ()    
Max Wind Speed 16 mph    
Max Gust Speed -    
Visibility 14.3 miles    
Events      
Averages and records for this station are not official NWS values.
T = Trace of Precipitation, MM = Missing Value Source: Averaged Metar Reports

Daily Weather History Graph

Daily Weather History Graph

Search for Another Location

Airport:

Trip Planner

Search our weather history database for the weather conditions in past years. The results will help you decide how hot, cold, wet, or windy it might be!

Date:

Astronomy

Jul. 18, 2013 Rise Set
Actual Time 6:57 AM EST 5:06 PM EST
Civil Twilight 6:30 AM EST 5:33 PM EST
Nautical Twilight 5:59 AM EST 6:03 PM EST
Astronomical Twilight 5:29 AM EST 6:33 PM EST
Moon 12:38 PM EST (7/18) 1:46 AM EST (7/18)
Length of Visible Light 11h 03m
Length of Day
10h 09m
Waxing Gibbous, 71% of the Moon is Illuminated
Jul 18
Waxing Gibbous
Jul 23
Full
Jul 30
Last Quarter
Aug 7
New
Aug 14
First Quarter

Hourly Weather History & Observations

Time (EST) Temp. Dew Point Humidity Pressure Visibility Wind Dir Wind Speed Gust Speed Precip Events Conditions
12:00 AM 63 °F 52 °F 57% 30.19 in 16 mi North 11.2 mph - -   Partly Cloudy
12:00 AM 62.6 °F 51.8 °F 68% 30.18 in - North 5.8 mph - N/A   Clear
12:30 AM 60.8 °F 53.6 °F 77% 30.18 in - West 6.9 mph - N/A   Clear
1:00 AM 60.8 °F 55.4 °F 82% 30.18 in - SW 3.5 mph - N/A   Clear
1:30 AM 60.8 °F 53.6 °F 77% 30.15 in - West 3.5 mph - N/A   Clear
2:00 AM 59.0 °F 53.6 °F 82% 30.15 in - NW 3.5 mph - N/A   Clear
2:30 AM 57.2 °F 53.6 °F 88% 30.15 in - NNE 5.8 mph - N/A   Clear
3:00 AM 58 °F 53 °F 76% 30.16 in 16 mi North 5.8 mph - -   Partly Cloudy
3:00 AM 59.0 °F 51.8 °F 77% 30.15 in - North 5.8 mph - N/A   Clear
3:30 AM 55.4 °F 51.8 °F 88% 30.15 in - Calm Calm - N/A   Clear
4:00 AM 57 °F 53 °F 83% 30.17 in - West 5.8 mph - -  
4:00 AM 57.2 °F 53.6 °F 88% 30.15 in - West 5.8 mph - N/A   Clear
4:30 AM 57.2 °F 53.6 °F 88% 30.15 in - WNW 6.9 mph - N/A   Clear
5:00 AM 57.2 °F 53.6 °F 88% 30.15 in - NNW 6.9 mph - N/A   Clear
5:30 AM 55.4 °F 51.8 °F 88% 30.15 in - NE 4.6 mph - N/A   Clear
6:00 AM 56 °F 52 °F 83% 30.17 in 9 mi NNW 4.6 mph - -   Haze
6:00 AM 57.2 °F 51.8 °F 82% 30.15 in - NNW 4.6 mph - N/A   Clear
6:30 AM 57.2 °F 53.6 °F 88% 30.15 in - NNW 5.8 mph - N/A   Clear
7:00 AM 58 °F 53 °F 77% 30.19 in - North 4.6 mph - -  
7:00 AM 59.0 °F 53.6 °F 82% 30.18 in - North 4.6 mph - N/A   Clear
7:30 AM 59.0 °F 51.8 °F 77% 30.18 in - NW 6.9 mph - N/A   Clear
8:00 AM 59.0 °F 53.6 °F 82% 30.18 in - NW 8.1 mph - N/A   Clear
8:30 AM 60.8 °F 53.6 °F 77% 30.18 in - NNW 8.1 mph - N/A   Clear
9:00 AM 61 °F 53 °F 67% 30.21 in 11 mi NW 6.9 mph - -   Haze
9:00 AM 60.8 °F 53.6 °F 77% 30.18 in - NW 6.9 mph - N/A   Clear
9:30 AM 62.6 °F 53.6 °F 72% 30.18 in - NW 6.9 mph - N/A   Clear
10:00 AM 64.4 °F 53.6 °F 68% 30.18 in - North 4.6 mph - N/A   Clear
10:30 AM 62.6 °F 53.6 °F 72% 30.18 in - NNW 2.3 mph - N/A   Clear
11:00 AM 64.4 °F 53.6 °F 68% 30.18 in - West 8.1 mph - N/A   Clear
11:30 AM 69.8 °F 53.6 °F 56% 30.15 in - WNW 5.8 mph - N/A   Clear
12:00 PM 69.8 °F 51.8 °F 53% 30.15 in - North 5.8 mph - N/A   Clear
12:30 PM 73.4 °F 53.6 °F 50% 30.12 in - North 5.8 mph - N/A   Clear
1:00 PM 72 °F 52 °F 39% 30.13 in - North 6.9 mph - -  
1:00 PM 71.6 °F 51.8 °F 50% 30.12 in - North 6.9 mph - N/A   Clear
1:30 PM 73.4 °F 51.8 °F 47% 30.09 in - ESE 5.8 mph - N/A   Clear
2:00 PM 71.6 °F 55.4 °F 57% 30.09 in - NE 10.4 mph - N/A   Clear
2:30 PM 71.6 °F 53.6 °F 53% 30.09 in - NE 9.2 mph - N/A   Clear
3:00 PM 68 °F 56 °F 58% 30.09 in 16 mi NNE 12.7 mph - -   Haze
3:00 PM 68.0 °F 57.2 °F 68% 30.09 in - NNE 12.7 mph - N/A   Clear
3:30 PM 68.0 °F 55.4 °F 64% 30.09 in - NNE 13.8 mph - N/A   Clear
4:00 PM 69 °F 56 °F 54% 30.10 in - NNE 12.7 mph - -  
4:00 PM 68.0 °F 55.4 °F 64% 30.09 in - NNE 12.7 mph - N/A   Clear
4:30 PM 68.0 °F 57.2 °F 68% 30.06 in - NNE 13.8 mph - N/A   Clear
5:00 PM 66.2 °F 55.4 °F 68% 30.06 in - NE 15.0 mph - N/A   Clear
5:30 PM 68.0 °F 55.4 °F 64% 30.06 in - NNE 13.8 mph - N/A   Clear
6:00 PM 67 °F 57 °F 61% 30.09 in 16 mi NNE 12.7 mph - -   Scattered Clouds
6:00 PM 68.0 °F 57.2 °F 68% 30.06 in - NNE 12.7 mph - N/A   Clear
6:30 PM 68.0 °F 57.2 °F 68% 30.06 in - NNE 15.0 mph - N/A   Clear
7:00 PM 67 °F 55 °F 56% 30.10 in - NNE 15.0 mph - -  
7:00 PM 68.0 °F 55.4 °F 64% 30.09 in - NNE 15.0 mph - N/A   Clear
7:30 PM 68.0 °F 55.4 °F 64% 30.09 in - NNE 16.1 mph - N/A   Clear
8:00 PM 68.0 °F 53.6 °F 60% 30.06 in - NNE 16.1 mph - N/A   Clear
8:30 PM 66.2 °F 55.4 °F 68% 30.06 in - NNE 13.8 mph - N/A   Clear
9:00 PM 66 °F 55 °F 58% 30.09 in 16 mi North 11.5 mph - -   Partly Cloudy
9:00 PM 66.2 °F 55.4 °F 68% 30.06 in - North 11.5 mph - N/A   Clear
9:30 PM 66.2 °F 53.6 °F 64% 30.06 in - North 9.2 mph - N/A   Clear
10:00 PM 65 °F 55 °F 61% 30.06 in - NNE 8.1 mph - -  
10:00 PM 66.2 °F 55.4 °F 68% 30.04 in - NNE 8.1 mph - N/A   Clear
10:30 PM 64.4 °F 55.4 °F 73% 30.04 in - NNE 12.7 mph - N/A   Clear
11:00 PM 64.4 °F 57.2 °F 77% 30.04 in - NNE 9.2 mph - N/A   Clear
11:30 PM 64.4 °F 55.4 °F 73% 30.04 in - North 9.2 mph - N/A   Clear